UAL1228 KEWR-KBOS

Flight info

Callsign UAL1228
Flight time 0h 41m
Altitude 21000
Route MERIT ROBUC3
Aircraft A320/M-SDE3FGHIRWY/LB1

Departure

Time 2026-05-04 20:41
Airport Newark Liberty International Airport (KEWR)

Arrival

Time 2026-05-04 21:22
Airport Boston Logan International Airport (KBOS)
Time Latitude Longitude Altitude Speed Heading
2026-05-04 20:31 40.69603 -74.17351 22 ft 0 kts 142°
2026-05-04 20:33 40.69604 -74.17352 22 ft 3 kts 142°
2026-05-04 20:34 40.69619 -74.17368 23 ft 3 kts 137°
2026-05-04 20:34 40.69623 -74.17374 23 ft 3 kts 154°
2026-05-04 20:34 40.69631 -74.17377 23 ft 1 kts 172°
2026-05-04 20:35 40.69643 -74.17380 24 ft 3 kts 122°
2026-05-04 20:35 40.69645 -74.17392 22 ft 2 kts 50°
2026-05-04 20:35 40.69638 -74.17402 24 ft 2 kts 41°
2026-05-04 20:35 40.69629 -74.17413 24 ft 0 kts 41°
2026-05-04 20:36 40.69628 -74.17413 24 ft 0 kts 41°
2026-05-04 20:37 40.69629 -74.17412 26 ft 1 kts 41°
2026-05-04 20:37 40.69674 -74.17360 22 ft 12 kts 41°
2026-05-04 20:37 40.69721 -74.17264 22 ft 14 kts 69°
2026-05-04 20:38 40.69686 -74.17159 22 ft 15 kts 149°
2026-05-04 20:38 40.69605 -74.17076 24 ft 16 kts 97°
2026-05-04 20:38 40.69637 -74.16935 22 ft 17 kts 70°
2026-05-04 20:38 40.69678 -74.16781 22 ft 19 kts 70°
2026-05-04 20:39 40.69781 -74.16679 21 ft 20 kts 25°
2026-05-04 20:39 40.69910 -74.16596 21 ft 21 kts 26°
2026-05-04 20:39 40.70027 -74.16522 22 ft 14 kts 25°
2026-05-04 20:39 40.70064 -74.16414 20 ft 15 kts 94°
2026-05-04 20:40 40.70030 -74.16362 19 ft 7 kts 199°
2026-05-04 20:40 40.69929 -74.16427 19 ft 45 kts 206°
2026-05-04 20:40 40.69386 -74.16773 24 ft 124 kts 206°
2026-05-04 20:40 40.68443 -74.17381 222 ft 165 kts 208°
2026-05-04 20:41 40.67365 -74.17891 1074 ft 171 kts 188°
2026-05-04 20:41 40.66182 -74.17644 1977 ft 174 kts 170°
2026-05-04 20:41 40.64966 -74.17453 2379 ft 183 kts 198°
2026-05-04 20:41 40.63852 -74.18361 2624 ft 201 kts 226°
2026-05-04 20:42 40.62651 -74.19496 2995 ft 230 kts 200°
2026-05-04 20:42 40.60972 -74.19466 3504 ft 259 kts 162°
2026-05-04 20:42 40.59520 -74.17984 4323 ft 276 kts 127°
2026-05-04 20:42 40.58899 -74.15562 5191 ft 288 kts 92°
2026-05-04 20:43 40.59365 -74.12996 6031 ft 294 kts 58°
2026-05-04 20:43 40.60722 -74.11013 6855 ft 293 kts 36°
2026-05-04 20:43 40.62372 -74.09484 7693 ft 294 kts 30°
2026-05-04 20:43 40.64088 -74.07993 8545 ft 296 kts 30°
2026-05-04 20:44 40.65819 -74.06494 9390 ft 299 kts 30°
2026-05-04 20:44 40.67539 -74.04933 10182 ft 303 kts 34°
2026-05-04 20:44 40.69203 -74.03078 10471 ft 326 kts 39°
2026-05-04 20:44 40.70900 -74.00933 10622 ft 350 kts 42°
2026-05-04 20:45 40.72660 -73.98588 10880 ft 367 kts 43°
2026-05-04 20:45 40.74461 -73.96163 11450 ft 373 kts 42°
2026-05-04 20:45 40.76296 -73.93724 12081 ft 377 kts 41°
2026-05-04 20:45 40.78165 -73.91278 12721 ft 381 kts 41°
2026-05-04 20:46 40.80042 -73.88859 13372 ft 384 kts 40°
2026-05-04 20:46 40.81973 -73.86395 13976 ft 388 kts 40°
2026-05-04 20:46 40.83926 -73.83911 14557 ft 391 kts 40°
2026-05-04 20:46 40.85894 -73.81408 15176 ft 393 kts 40°
2026-05-04 20:47 40.87869 -73.78893 15752 ft 396 kts 40°
2026-05-04 20:47 40.89858 -73.76355 16311 ft 399 kts 40°
2026-05-04 20:47 40.91857 -73.73796 16908 ft 401 kts 40°
2026-05-04 20:47 40.93869 -73.71213 17505 ft 404 kts 40°
2026-05-04 20:48 40.95892 -73.68615 18105 ft 407 kts 40°
2026-05-04 20:48 40.97934 -73.65992 18654 ft 410 kts 40°
2026-05-04 20:48 40.99987 -73.63353 19216 ft 412 kts 40°
2026-05-04 20:48 41.02050 -73.60699 19815 ft 414 kts 40°
2026-05-04 20:49 41.04094 -73.58069 20358 ft 417 kts 39°
2026-05-04 20:49 41.06179 -73.55382 20780 ft 419 kts 39°
2026-05-04 20:49 41.08267 -73.52685 20889 ft 423 kts 39°
2026-05-04 20:49 41.10415 -73.49917 20910 ft 437 kts 40°
2026-05-04 20:50 41.12619 -73.47071 20904 ft 445 kts 40°
2026-05-04 20:50 41.14841 -73.44193 20905 ft 448 kts 40°
2026-05-04 20:50 41.17066 -73.41303 20900 ft 448 kts 40°
2026-05-04 20:50 41.19293 -73.38403 20917 ft 448 kts 40°
2026-05-04 20:51 41.21522 -73.35505 20911 ft 449 kts 40°
2026-05-04 20:51 41.23748 -73.32606 20913 ft 449 kts 40°
2026-05-04 20:51 41.25979 -73.29698 20910 ft 449 kts 40°
2026-05-04 20:51 41.28174 -73.26834 20914 ft 448 kts 40°
2026-05-04 20:52 41.30400 -73.23926 20915 ft 448 kts 40°
2026-05-04 20:52 41.32625 -73.21021 20907 ft 448 kts 40°
2026-05-04 20:52 41.34809 -73.18060 20898 ft 450 kts 45°
2026-05-04 20:52 41.36660 -73.14676 20914 ft 455 kts 56°
2026-05-04 20:53 41.38058 -73.10868 20925 ft 460 kts 66°
2026-05-04 20:53 41.38942 -73.06766 20916 ft 464 kts 77°
2026-05-04 20:53 41.39423 -73.02506 20913 ft 465 kts 79°
2026-05-04 20:53 41.39877 -72.98236 20908 ft 465 kts 79°
2026-05-04 20:54 41.40330 -72.93970 20899 ft 465 kts 79°
2026-05-04 20:54 41.40776 -72.89755 20903 ft 465 kts 79°
2026-05-04 20:54 41.41232 -72.85494 20901 ft 464 kts 79°
2026-05-04 20:54 41.41689 -72.81241 20900 ft 464 kts 79°
2026-05-04 20:55 41.42144 -72.76983 20897 ft 464 kts 79°
2026-05-04 20:55 41.42597 -72.72724 20896 ft 464 kts 79°
2026-05-04 20:55 41.43045 -72.68464 20898 ft 464 kts 79°
2026-05-04 20:55 41.43492 -72.64212 20900 ft 464 kts 79°
2026-05-04 20:56 41.43941 -72.59949 20901 ft 464 kts 79°
2026-05-04 20:56 41.44386 -72.55687 20903 ft 464 kts 79°
2026-05-04 20:56 41.44828 -72.51429 20904 ft 464 kts 79°
2026-05-04 20:56 41.45262 -72.47227 20906 ft 464 kts 79°
2026-05-04 20:57 41.45699 -72.42966 20906 ft 464 kts 79°
2026-05-04 20:57 41.46136 -72.38707 20906 ft 464 kts 79°
2026-05-04 20:57 41.46570 -72.34454 20905 ft 463 kts 79°
2026-05-04 20:57 41.47002 -72.30196 20904 ft 463 kts 79°
2026-05-04 20:58 41.47431 -72.25938 20904 ft 463 kts 79°
2026-05-04 20:58 41.48048 -72.21735 20912 ft 460 kts 71°
2026-05-04 20:58 41.49117 -72.17738 20894 ft 456 kts 62°
2026-05-04 20:58 41.50504 -72.13941 20895 ft 455 kts 60°
2026-05-04 20:59 41.51903 -72.10152 20899 ft 455 kts 60°
2026-05-04 20:59 41.53293 -72.06358 20896 ft 455 kts 60°
2026-05-04 20:59 41.54677 -72.02561 20894 ft 455 kts 60°
2026-05-04 20:59 41.56024 -71.98801 20895 ft 456 kts 62°
2026-05-04 21:00 41.57296 -71.94922 20895 ft 457 kts 64°
2026-05-04 21:00 41.58479 -71.90986 20902 ft 457 kts 65°
2026-05-04 21:00 41.59614 -71.87017 20904 ft 457 kts 66°
2026-05-04 21:00 41.60735 -71.83042 20905 ft 457 kts 66°
2026-05-04 21:01 41.61852 -71.79100 20912 ft 445 kts 65°
2026-05-04 21:01 41.62939 -71.75313 20916 ft 431 kts 65°
2026-05-04 21:01 41.64022 -71.71600 20912 ft 428 kts 65°
2026-05-04 21:01 41.65098 -71.67953 20912 ft 427 kts 64°
2026-05-04 21:02 41.66192 -71.64262 20910 ft 427 kts 64°
2026-05-04 21:02 41.67275 -71.60600 20896 ft 414 kts 64°
2026-05-04 21:02 41.68292 -71.57128 20739 ft 389 kts 64°
2026-05-04 21:02 41.69258 -71.53812 20198 ft 377 kts 64°
2026-05-04 21:03 41.70206 -71.50565 19495 ft 372 kts 64°
2026-05-04 21:03 41.71141 -71.47366 18774 ft 368 kts 65°
2026-05-04 21:03 41.72072 -71.44187 18053 ft 364 kts 64°
2026-05-04 21:03 41.73211 -71.41203 17256 ft 357 kts 56°
2026-05-04 21:04 41.74429 -71.38374 16494 ft 354 kts 56°
2026-05-04 21:04 41.75647 -71.35528 15752 ft 350 kts 56°
2026-05-04 21:04 41.76843 -71.32722 15226 ft 343 kts 57°
2026-05-04 21:04 41.78026 -71.29949 14803 ft 343 kts 57°
2026-05-04 21:05 41.79205 -71.27190 14378 ft 340 kts 57°
2026-05-04 21:05 41.80384 -71.24431 13948 ft 342 kts 57°
2026-05-04 21:05 41.81552 -71.21690 13739 ft 334 kts 57°
2026-05-04 21:05 41.82679 -71.19035 13425 ft 331 kts 58°
2026-05-04 21:06 41.83812 -71.16367 13081 ft 328 kts 57°
2026-05-04 21:06 41.84936 -71.13720 12704 ft 326 kts 57°
2026-05-04 21:06 41.86056 -71.11086 12389 ft 324 kts 56°
2026-05-04 21:06 41.87178 -71.08482 12043 ft 321 kts 56°
2026-05-04 21:07 41.88299 -71.05900 11736 ft 318 kts 56°
2026-05-04 21:07 41.89403 -71.03362 11566 ft 313 kts 56°
2026-05-04 21:07 41.90498 -71.00838 11429 ft 313 kts 56°
2026-05-04 21:07 41.91590 -70.98317 11288 ft 312 kts 56°
2026-05-04 21:08 41.92679 -70.95800 11146 ft 311 kts 56°
2026-05-04 21:08 41.93748 -70.93319 11012 ft 311 kts 56°
2026-05-04 21:08 41.94827 -70.90809 10870 ft 310 kts 56°
2026-05-04 21:08 41.95904 -70.88299 10725 ft 309 kts 56°
2026-05-04 21:09 41.96979 -70.85793 10581 ft 310 kts 56°
2026-05-04 21:09 41.98049 -70.83288 10446 ft 309 kts 56°
2026-05-04 21:09 41.99119 -70.80786 10307 ft 308 kts 56°
2026-05-04 21:09 42.00187 -70.78291 10181 ft 307 kts 56°
2026-05-04 21:10 42.01335 -70.75895 10001 ft 303 kts 46°
2026-05-04 21:10 42.02729 -70.73777 9687 ft 301 kts 43°
2026-05-04 21:10 42.04105 -70.71716 9386 ft 299 kts 43°
2026-05-04 21:10 42.05489 -70.69633 9109 ft 298 kts 43°
2026-05-04 21:11 42.06872 -70.67556 8827 ft 297 kts 43°
2026-05-04 21:11 42.08251 -70.65490 8543 ft 297 kts 43°
2026-05-04 21:11 42.09632 -70.63423 8234 ft 296 kts 43°
2026-05-04 21:11 42.11009 -70.61361 7899 ft 295 kts 43°
2026-05-04 21:12 42.12384 -70.59310 7549 ft 295 kts 43°
2026-05-04 21:12 42.13759 -70.57261 7209 ft 295 kts 43°
2026-05-04 21:12 42.15219 -70.55358 6862 ft 287 kts 27°
2026-05-04 21:12 42.16999 -70.54422 6500 ft 275 kts
2026-05-04 21:13 42.18881 -70.54495 6113 ft 270 kts 347°
2026-05-04 21:13 42.20747 -70.54820 5723 ft 271 kts 346°
2026-05-04 21:13 42.22592 -70.55265 5358 ft 265 kts 334°
2026-05-04 21:13 42.24147 -70.56468 5069 ft 255 kts 317°
2026-05-04 21:14 42.25560 -70.57936 5032 ft 257 kts 316°
2026-05-04 21:14 42.26962 -70.59441 5034 ft 258 kts 316°
2026-05-04 21:14 42.28364 -70.60944 4875 ft 257 kts 316°
2026-05-04 21:14 42.29767 -70.62440 4508 ft 257 kts 316°
2026-05-04 21:15 42.31170 -70.63933 4156 ft 256 kts 316°
2026-05-04 21:15 42.32557 -70.65416 3816 ft 249 kts 316°
2026-05-04 21:15 42.33870 -70.66808 3686 ft 230 kts 316°
2026-05-04 21:15 42.35075 -70.68073 3475 ft 216 kts 316°
2026-05-04 21:16 42.36261 -70.69302 3034 ft 214 kts 316°
2026-05-04 21:16 42.37441 -70.70516 2563 ft 213 kts 316°
2026-05-04 21:16 42.38431 -70.71909 2151 ft 199 kts 290°
2026-05-04 21:16 42.38809 -70.73622 2002 ft 183 kts 277°
2026-05-04 21:17 42.39033 -70.75248 2035 ft 170 kts 276°
2026-05-04 21:17 42.39230 -70.76807 2015 ft 166 kts 276°
2026-05-04 21:17 42.39418 -70.78335 1996 ft 161 kts 275°
2026-05-04 21:17 42.39355 -70.79783 2002 ft 153 kts 252°
2026-05-04 21:18 42.39094 -70.81171 1996 ft 149 kts 255°
2026-05-04 21:18 42.38874 -70.82497 1983 ft 136 kts 254°
2026-05-04 21:18 42.38670 -70.83694 2007 ft 126 kts 254°
2026-05-04 21:18 42.38475 -70.84819 1966 ft 121 kts 253°
2026-05-04 21:19 42.38287 -70.85898 1865 ft 119 kts 252°
2026-05-04 21:19 42.38098 -70.86977 1737 ft 117 kts 252°
2026-05-04 21:19 42.37911 -70.88042 1594 ft 116 kts 252°
2026-05-04 21:19 42.37724 -70.89106 1445 ft 118 kts 254°
2026-05-04 21:20 42.37532 -70.90197 1297 ft 120 kts 254°
2026-05-04 21:20 42.37339 -70.91295 1124 ft 123 kts 256°
2026-05-04 21:20 42.37133 -70.92436 986 ft 124 kts 253°
2026-05-04 21:20 42.36932 -70.93584 814 ft 126 kts 256°
2026-05-04 21:21 42.36753 -70.94725 671 ft 123 kts 253°
2026-05-04 21:21 42.36549 -70.95843 501 ft 125 kts 254°
2026-05-04 21:21 42.36342 -70.96984 365 ft 124 kts 256°
2026-05-04 21:21 42.36149 -70.98105 175 ft 124 kts 254°
2026-05-04 21:22 42.35947 -70.99222 32 ft 115 kts 253°
2026-05-04 21:22 42.35791 -71.00075 25 ft 69 kts 257°
2026-05-04 21:22 42.35714 -71.00515 29 ft 41 kts 256°
2026-05-04 21:22 42.35641 -71.00889 27 ft 40 kts 258°
2026-05-04 21:23 42.35660 -71.01146 28 ft 18 kts 296°
2026-05-04 21:23 42.35734 -71.01289 27 ft 20 kts 300°
2026-05-04 21:23 42.35783 -71.01469 30 ft 21 kts 290°
2026-05-04 21:23 42.35835 -71.01644 25 ft 14 kts 314°
2026-05-04 21:24 42.35933 -71.01628 29 ft 16 kts 20°
2026-05-04 21:24 42.36037 -71.01576 28 ft 10 kts 20°
2026-05-04 21:24 42.36076 -71.01632 27 ft 10 kts 290°
2026-05-04 21:24 42.36089 -71.01682 28 ft 4 kts 289°
2026-05-04 21:25 42.36089 -71.01684 28 ft 0 kts 289°